Flag Weather past 2 weeks in Aqtobe, Kazakhstan

Now
19 °F

Low clouds.


Feels Like: 7 °F
Forecast: 14 / 23 °F
Wind: 13 mph from Northwest

Location: Aktjubinsk

Current Time: Nov 21, 2014 at 4:49:24 AM

Latest Report: Nov 21, 2014 at 4:00 AM


Visibility: N/A

Pressure: 30.42 "Hg

Humidity: 93%

Dew point: 18 °F

Location of AqtobeLocation

Historic Weather in Aqtobe — Graph

°F

Aqtobe temperature yesterday

Maximum temperature yesterday: 21 °F (at 1:30 PM)
Minimum temperature yesterday: 7 °F (at 7:30 AM)
Average temperature yesterday: 16 °F

Past Weeks' High & Low Weather Summary

 TemperatureHumidityPressure
High43 °F (Nov 11, 12:00 PM)100% (Nov 6, 9:30 PM)30.66 "Hg (Nov 6, 9:30 PM)
Low1 °F (Nov 18, 5:30 AM)63% (Nov 17, 2:00 PM)30.12 "Hg (Nov 6, 3:00 AM)
Average27 °F91%30.43 "Hg
* Reported Nov 6 3:00 AM — Nov 21 3:30 AM, Aqtobe, Weather by CustomWeather, © 2014

Note: Actual official high and low records may vary slightly from our data, if they occured in-between our weather recording intervals... More about our weather records

Advertising

Aqtobe weather history for previous 24 hours

 ConditionsComfort  
Time TempWeatherWind HumidityBarometerVisibility
3:30 AM
Nov 21
19 °FOvercast.15 mph93%30.42 "HgN/A
3:00 AM19 °FLow clouds.10 mph93%30.42 "HgN/A
2:30 AM19 °FLow clouds.13 mph93%30.42 "HgN/A
2:00 AM19 °FLow clouds.13 mph93%30.42 "HgN/A
1:30 AM19 °FOvercast.10 mph86%30.42 "HgN/A
1:00 AM19 °FOvercast.13 mph86%30.42 "HgN/A
12:30 AM19 °FOvercast.13 mph86%30.42 "HgN/A
12:00 AM19 °FOvercast.10 mph86%30.42 "HgN/A
11:30 PM
Nov 20
19 °FOvercast.10 mph86%30.42 "HgN/A
11:00 PM19 °FOvercast.10 mph86%30.42 "HgN/A
10:30 PM19 °FOvercast.13 mph86%30.42 "HgN/A
10:00 PM19 °FOvercast.10 mph79%30.42 "HgN/A
9:30 PM19 °FOvercast.15 mph79%30.42 "HgN/A
9:00 PM19 °FOvercast.17 mph79%30.42 "HgN/A
8:30 PM19 °FOvercast.15 mph86%30.42 "HgN/A
8:00 PM19 °FOvercast.13 mph86%30.42 "HgN/A
7:30 PM19 °FOvercast.10 mph86%30.42 "HgN/A
7:00 PM19 °FOvercast.13 mph86%30.42 "HgN/A
6:30 PM19 °FOvercast.10 mph86%30.42 "HgN/A
6:00 PM19 °FOvercast.13 mph86%30.42 "HgN/A
5:30 PM19 °FPassing clouds.15 mph86%30.42 "HgN/A
5:00 PM19 °FPartly sunny.15 mph86%30.42 "HgN/A
4:30 PM19 °FPartly sunny.13 mph86%30.42 "HgN/A
4:00 PM21 °FPartly sunny.13 mph80%30.42 "HgN/A
3:30 PM21 °FOvercast.15 mph86%30.42 "HgN/A
3:00 PM21 °FOvercast.13 mph86%30.42 "HgN/A
2:30 PM21 °FOvercast.15 mph86%30.42 "HgN/A
2:00 PM21 °FLight snow. Overcast.15 mph86%30.42 "HgN/A
1:30 PM21 °FLight snow. Partly sunny.13 mph86%30.45 "Hg4 mi
1:00 PM19 °FLight snow. Overcast.13 mph86%30.45 "Hg4 mi
12:30 PM19 °FLight snow. Overcast.15 mph86%30.45 "Hg6 mi
12:00 PM19 °FLight snow. Partly sunny.13 mph79%30.45 "HgN/A
11:30 AM18 °FLight snow. Partly sunny.15 mph93%30.45 "HgN/A
11:00 AM18 °FScattered clouds.10 mph93%30.45 "HgN/A
10:30 AM18 °FScattered clouds.10 mph93%30.45 "Hg5 mi
10:00 AM16 °FLight snow. Partly sunny.10 mph100%30.48 "Hg4 mi
9:30 AM16 °FLight snow. Ice fog.10 mph93%30.48 "Hg2 mi
9:00 AM14 °FLight snow. Low clouds.8 mph92%30.45 "Hg4 mi
8:30 AM12 °FPassing clouds.6 mph85%30.48 "HgN/A
8:00 AM10 °FPassing clouds.3 mph92%30.48 "HgN/A
7:30 AM7 °FClear.3 mph92%30.48 "Hg10 mi
7:00 AM9 °FClear.3 mph92%30.48 "Hg10 mi
6:00 AM9 °FClear.6 mph92%30.48 "Hg10 mi
5:30 AM9 °FClear.1 mph92%30.48 "Hg10 mi
4:30 AM9 °FClear.6 mph92%30.51 "Hg10 mi
4:00 AM10 °FClear.3 mph85%30.51 "Hg10 mi
Weather by CustomWeather, © 2014

See weather overviewHow to use our weather pages